This is the latest recevied weather packets stored in our database for station/object K2CAT. If no packets are shown the sender has not sent any weather packets the latest 10 day(s).
| Time | Temp. | Humidity | Pressure | Rain* | Wind** | Luminosity | Snow |
|---|---|---|---|---|---|---|---|
| 1777707642 | 8.89° C | 98% | 1011.3 hPa | 1.78 mm | - | 0 W/m² | - |
| 1777707337 | 8.89° C | 98% | 1011.5 hPa | 1.78 mm | - | 0 W/m² | - |
| 1777707035 | 8.89° C | 98% | 1011.6 hPa | 1.78 mm | - | 0 W/m² | - |
| 1777706732 | 8.89° C | 98% | 1011.9 hPa | 1.27 mm | - | 0 W/m² | - |
| 1777706430 | 8.33° C | 97% | 1011.8 hPa | 3.05 mm | - | 0 W/m² | - |
| 1777706128 | 8.89° C | 97% | 1012.2 hPa | 1.78 mm | - | 0 W/m² | - |
| 1777705826 | 8.89° C | 97% | 1012.2 hPa | 1.78 mm | - | 0 W/m² | - |
| 1777705524 | 8.89° C | 97% | 1012.1 hPa | 4.83 mm | - | 0 W/m² | - |
| 1777705222 | 8.89° C | 97% | 1012.3 hPa | 4.32 mm | - | 0 W/m² | - |
| 1777704920 | 8.33° C | 97% | 1012.3 hPa | 3.05 mm | - | 0 W/m² | - |
| 1777704617 | 8.89° C | 97% | 1012.4 hPa | 3.05 mm | - | 0 W/m² | - |
| 1777704316 | 8.89° C | 97% | 1012.5 hPa | 3.05 mm | - | 0 W/m² | - |
| 1777704012 | 8.89° C | 97% | 1012.3 hPa | 3.05 mm | - | 0 W/m² | - |
| 1777703710 | 8.89° C | 97% | 1012.3 hPa | 0 mm | - | 0 W/m² | - |
| 1777703408 | 8.89° C | 97% | 1012.1 hPa | 1.27 mm | - | 0 W/m² | - |
| 1777703104 | 8.89° C | 97% | 1011.9 hPa | 3.05 mm | - | 0 W/m² | - |
| 1777702803 | 8.89° C | 97% | 1012.2 hPa | 3.05 mm | - | 0 W/m² | - |
| 1777702500 | 8.89° C | 96% | 1012.1 hPa | 3.05 mm | - | 0 W/m² | - |
| 1777702196 | 8.89° C | 96% | 1012.2 hPa | 1.78 mm | - | 0 W/m² | - |
| 1777701892 | 8.89° C | 96% | 1012.2 hPa | 0 mm | - | 0 W/m² | - |
| 1777701589 | 8.89° C | 96% | 1012.1 hPa | 0 mm | - | 0 W/m² | - |
| 1777701287 | 8.89° C | 96% | 1012.2 hPa | 0 mm | - | 0 W/m² | - |
| 1777700987 | 8.89° C | 96% | 1012 hPa | 0 mm | - | 0 W/m² | - |
| 1777700684 | 8.89° C | 96% | 1012.2 hPa | 1.27 mm | - | 0 W/m² | - |
| 1777700381 | 8.89° C | 95% | 1012.2 hPa | 1.27 mm | - | 0 W/m² | - |
* Rain latest hour (hover to see other rain measurements)
** Current wind speed in m/s (hover to see current wind gust speed)